EW9507 Weather Reports


Display with metric or nautical units.
time (UTC)temp
F
wind
direction
speed
MPH
gust
MPH
rain 1hr
in
rain 24hr
in
rain mn
in
humidity
%
barometer
mb
20260508041519 48 285 6.0 10.0 0.00 0.03 0.03 75 1010.3
20260508040023 47 286 4.0 8.0 0.00 0.03 0.03 77 1010.2
20260508034520 46 281 3.0 5.0 0.00 0.03 0.03 77 1010.3
20260508033016 47 295 4.0 6.0 0.00 0.03 0.03 77 1010.1
20260508031521 47 284 4.0 6.0 0.00 0.03 0.03 77 1010.0
20260508030018 46 285 3.0 6.0 0.00 0.03 0.03 77 1009.6
20260508024514 46 302 3.0 5.0 0.00 0.03 0.03 75 1009.3
20260508023016 47 293 4.0 6.0 0.00 0.03 0.03 72 1009.1
20260508021510 49 298 4.0 6.0 0.00 0.03 0.03 68 1008.8
20260508020008 51 321 4.0 7.0 0.00 0.03 0.03 67 1008.6
20260508014512 52 331 3.0 6.0 0.00 0.03 0.03 66 1008.5
20260508013037 52 347 3.0 5.0 0.00 0.03 0.03 66 1008.4
20260508011539 52 335 2.0 6.0 0.00 0.03 0.03 65 1008.4
20260508010008 53 354 4.0 9.0 0.00 0.03 0.03 64 1008.2
20260508004507 53 343 8.0 12.0 0.00 0.03 0.03 63 1008.3
20260508003104 54 318 6.0 11.0 0.00 0.03 0.03 62 1008.4
20260508001503 53 336 9.0 13.0 0.00 0.03 0.03 64 1008.3
20260508000001 52 349 8.0 17.0 0.00 0.03 0.03 64 1008.2
20260507234501 52 14 7.0 15.0 0.00 0.03 0.03 64 1008.3
20260507233058 52 349 12.0 19.0 0.00 0.03 0.03 65 1008.1
20260507231557 51 352 12.0 19.0 0.01 0.03 0.03 65 1008.3
20260507224557 55 354 17.0 24.0 0.01 0.03 0.03 63 1007.7
20260507223058 56 345 13.0 20.0 0.01 0.03 0.03 64 1007.5
20260507223056 56 329 13.0 20.0 0.01 0.03 0.03 64 1007.5
20260507221553 55 347 11.0 21.0 0.00 0.02 0.02 67 1007.6
20260507220053 54 309 14.0 23.0 0.00 0.02 0.02 73 1007.9
20260507220051 54 302 15.0 23.0 0.00 0.02 0.02 73 1007.9
20260507214550 52 310 13.0 19.0 0.00 0.02 0.02 81 1008.2
20260507213052 51 312 13.0 21.0 0.00 0.02 0.02 83 1008.4
20260507211542 49 310 12.0 22.0 0.00 0.02 0.02 84 1008.7
20260507210042 50 302 12.0 17.0 0.00 0.02 0.02 78 1008.8
20260507204540 52 319 12.0 21.0 0.00 0.02 0.02 71 1008.7
20260507203041 53 321 17.0 25.0 0.01 0.02 0.02 67 1008.9
20260507201541 52 315 10.0 19.0 0.02 0.02 0.02 70 1008.8
20260507200043 52 322 12.0 21.0 0.02 0.02 0.02 73 1008.8
20260507194545 51 8 11.0 18.0 0.02 0.02 0.02 79 1009.0
20260507193037 48 337 5.0 13.0 0.01 0.01 0.01 84 1009.2
20260507191534 48 321 10.0 16.0 0.00 0.00 0.00 84 1009.3
20260507190032 48 328 10.0 20.0 0.00 0.00 0.00 83 1009.3
20260507184529 49 335 11.0 25.0 0.00 0.00 0.00 79 1009.3
20260507183037 49 352 11.0 23.0 0.00 0.00 0.00 80 1009.4
20260507181524 51 330 14.0 24.0 0.00 0.00 0.00 71 1009.4
20260507180021 55 339 16.0 24.0 0.00 0.00 0.00 53 1008.9
20260507174524 56 4 16.0 26.0 0.00 0.00 0.00 50 1008.8
20260507173019 56 6 15.0 23.0 0.00 0.00 0.00 49 1008.7
20260507171551 56 13 14.0 22.0 0.00 0.00 0.00 46 1008.5
20260507170050 57 6 11.0 17.0 0.00 0.00 0.00 42 1008.7
20260507164603 58 315 6.0 11.0 0.00 0.00 0.00 41 1008.8
20260507163043 58 298 7.0 10.0 0.00 0.00 0.00 41 1008.8
20260507161546 57 354 7.0 17.0 0.00 0.00 0.00 41 1008.7
20260507160045 57 321 6.0 10.0 0.00 0.00 0.00 42 1008.9
20260507154537 57 6 5.0 13.0 0.00 0.00 0.00 40 1009.1
20260507153036 58 306 9.0 26.0 0.00 0.00 0.00 38 1009.3
20260507151535 58 279 11.0 18.0 0.00 0.00 0.00 38 1009.3
20260507150031 56 260 15.0 20.0 0.00 0.00 0.00 45 1009.3
20260507144603 54 274 13.0 19.0 0.00 0.00 0.00 45 1009.6
20260507143108 53 250 13.0 18.0 0.00 0.00 0.00 42 1009.7
20260507141608 53 288 9.0 13.0 0.00 0.00 0.00 42 1009.7
20260507140050 53 284 9.0 16.0 0.00 0.00 0.00 42 1009.8
20260507134548 52 266 9.0 15.0 0.00 0.00 0.00 43 1009.6
20260507133045 51 260 9.0 11.0 0.00 0.00 0.00 43 1009.7
20260507131546 51 286 10.0 15.0 0.00 0.00 0.00 42 1009.7
20260507130041 50 288 9.0 15.0 0.00 0.00 0.00 43 1009.7
20260507124536 49 262 11.0 17.0 0.00 0.00 0.00 44 1009.7
20260507123029 48 262 10.0 14.0 0.00 0.00 0.00 45 1009.4
20260507121527 47 283 7.0 12.0 0.00 0.00 0.00 44 1009.6
20260507120025 45 281 7.0 11.0 0.00 0.00 0.00 47 1009.7
20260507114525 44 290 6.0 10.0 0.00 0.00 0.00 48 1009.8
20260507113023 41 297 6.0 9.0 0.00 0.00 0.00 50 1009.7
20260507111517 41 290 4.0 6.0 0.00 0.00 0.00 48 1009.7
20260507110014 44 302 5.0 7.0 0.00 0.00 0.00 43 1009.7
20260507104511 46 295 7.0 13.0 0.00 0.00 0.00 40 1009.6
20260507103011 47 269 9.0 15.0 0.00 0.00 0.00 39 1009.7
20260507101540 48 259 12.0 18.0 0.00 0.00 0.00 38 1009.6
20260507100051 46 257 11.0 17.0 0.00 0.00 0.00 41 1009.7
20260507094536 46 255 9.0 14.0 0.00 0.00 0.00 40 1009.8
20260507093034 46 276 10.0 16.0 0.00 0.00 0.00 39 1009.9
20260507091535 46 255 10.0 16.0 0.00 0.00 0.00 38 1010.1
20260507090031 47 258 10.0 17.0 0.00 0.00 0.00 37 1010.2
20260507084531 47 245 11.0 16.0 0.00 0.00 0.00 37 1010.2
20260507083024 47 257 11.0 17.0 0.00 0.00 0.00 36 1010.4
20260507081524 47 265 10.0 16.0 0.00 0.00 0.00 36 1010.6
20260507081522 47 269 10.0 16.0 0.00 0.00 0.00 36 1010.6
20260507080019 47 276 10.0 16.0 0.00 0.00 0.00 35 1011.0
20260507074518 47 257 11.0 16.0 0.00 0.00 0.00 35 1011.1
20260507073015 47 260 12.0 18.0 0.00 0.00 0.00 35 1011.1
20260507071523 47 258 13.0 20.0 0.00 0.00 0.00 34 1011.2
20260507070013 47 276 14.0 19.0 0.00 0.00 0.00 34 1011.2
20260507064507 46 269 12.0 19.0 0.00 0.00 0.00 35 1011.6
20260507063037 46 255 11.0 16.0 0.00 0.00 0.00 35 1011.6
20260507061533 46 252 12.0 17.0 0.00 0.00 0.00 35 1011.8
20260507060024 44 262 9.0 16.0 0.00 0.00 0.00 36 1012.0
20260507054518 44 228 10.0 16.0 0.00 0.00 0.00 35 1011.9
20260507053013 42 255 9.0 13.0 0.00 0.00 0.00 38 1012.0
20260507051509 39 262 3.0 5.0 0.00 0.00 0.00 43 1012.4
20260507050043 42 283 2.0 7.0 0.00 0.00 0.00 38 1012.6
20260507044530 43 227 6.0 9.0 0.00 0.00 0.00 36 1012.9
20260507043027 42 196 5.0 10.0 0.00 0.00 0.00 37 1013.1